KI7YRV Weather Reports


time (UTC)temp
C
wind
direction
speed
KPH
gust
KPH
rain 1hr
cm
rain 24hr
cm
rain mn
cm
humidity
%
barometer
mb
20260906224017 28 178 24.1 35.4 0.00 0.00 0.00 22 1015.9
20260906223020 28 184 27.4 35.4 0.00 0.00 0.00 22 1016.1
20260906222024 29 170 25.7 29.0 0.00 0.00 0.00 22 1016.1
20260906221028 30 198 29.0 35.4 0.00 0.00 0.00 21 1016.2
20260906220032 30 177 27.4 37.0 0.00 0.00 0.00 21 1016.2
20260906215018 30 162 25.7 32.2 0.00 0.00 0.00 21 1016.5
20260906214021 30 156 27.4 32.2 0.00 0.00 0.00 21 1016.5
20260906213105 31 161 27.4 33.8 0.00 0.00 0.00 21 1016.5
20260906212023 30 149 29.0 38.6 0.00 0.00 0.00 21 1016.4
20260906211041 31 161 27.4 33.8 0.00 0.00 0.00 21 1016.3
20260906210018 31 150 25.7 33.8 0.00 0.00 0.00 21 1016.7
20260906205016 31 160 22.5 32.2 0.00 0.00 0.00 21 1016.7
20260906204046 31 176 24.1 35.4 0.00 0.00 0.00 21 1016.5
20260906203029 31 173 20.9 32.2 0.00 0.00 0.00 21 1016.8
20260906202015 32 170 17.7 29.0 0.00 0.00 0.00 21 1017.0
20260906201019 30 173 20.9 24.1 0.00 0.00 0.00 22 1017.3
20260906200023 31 165 17.7 24.1 0.00 0.00 0.00 22 1017.5
20260906195027 32 139 20.9 25.7 0.00 0.00 0.00 21 1017.7
20260906194030 32 147 16.1 20.9 0.00 0.00 0.00 23 1017.9
20260906193016 31 143 12.9 24.1 0.00 0.00 0.00 23 1018.2
20260906192020 30 162 9.7 17.7 0.00 0.00 0.00 25 1018.3
20260906191024 30 164 12.9 29.0 0.00 0.00 0.00 26 1018.5
20260906190028 30 24 6.4 8.0 0.00 0.00 0.00 30 1018.7
20260906185032 29 330 9.7 14.5 0.00 0.00 0.00 31 1018.9
20260906184018 29 350 9.7 12.9 0.00 0.00 0.00 31 1019.1
20260906183022 28 351 9.7 12.9 0.00 0.00 0.00 32 1019.3
20260906182025 28 347 9.7 14.5 0.00 0.00 0.00 33 1019.5
20260906181029 28 324 11.3 19.3 0.00 0.00 0.00 31 1019.6
20260906180032 27 269 6.4 12.9 0.00 0.00 0.00 30 1020.1
20260906175018 27 109 6.4 8.0 0.00 0.00 0.00 33 1020.3
20260906174102 26 108 4.8 8.0 0.00 0.00 0.00 31 1020.6
20260906173025 26 126 6.4 11.3 0.00 0.00 0.00 32 1020.8
20260906172029 26 157 6.4 14.5 0.00 0.00 0.00 34 1020.8
20260906171015 25 251 6.4 9.7 0.00 0.00 0.00 36 1020.8
20260906170019 25 165 4.8 8.0 0.00 0.00 0.00 36 1021.0
20260906165023 23 14 6.4 8.0 0.00 0.00 0.00 42 1021.0
20260906164021 23 357 8.0 9.7 0.00 0.00 0.00 43 1021.2
20260906163018 22 4 6.4 8.0 0.00 0.00 0.00 45 1021.2
20260906162016 22 330 8.0 9.7 0.00 0.00 0.00 48 1021.3
20260906161020 22 16 6.4 9.7 0.00 0.00 0.00 48 1021.4
20260906160024 21 26 6.4 8.0 0.00 0.00 0.00 50 1021.4
20260906155028 21 20 6.4 8.0 0.00 0.00 0.00 50 1021.2
20260906154015 20 335 6.4 9.7 0.00 0.00 0.00 51 1021.4
20260906153039 19 347 4.8 6.4 0.00 0.00 0.00 51 1021.4
20260906152022 18 322 6.4 8.0 0.00 0.00 0.00 53 1021.4
20260906151026 18 299 6.4 9.7 0.00 0.00 0.00 55 1021.4
20260906150050 17 351 8.0 9.7 0.00 0.00 0.00 56 1021.5
20260906145016 17 331 9.7 11.3 0.00 0.00 0.00 58 1021.6
20260906144040 17 350 8.0 9.7 0.00 0.00 0.00 60 1021.4
20260906143024 16 333 6.4 9.7 0.00 0.00 0.00 60 1021.4
20260906142027 16 345 6.4 8.0 0.00 0.00 0.00 56 1021.4
20260906141032 15 318 4.8 6.4 0.00 0.00 0.00 57 1021.4
20260906140017 15 6.4 6.4 0.00 0.00 0.00 57 1021.2
20260906135021 15 12 1.6 4.8 0.00 0.00 0.00 58 1021.2
20260906134025 13 323 4.8 6.4 0.00 0.00 0.00 60 1021.2
20260906133028 13 11 4.8 6.4 0.00 0.00 0.00 62 1021.1
20260906132032 13 328 4.8 8.0 0.00 0.00 0.00 64 1021.0
20260906131018 12 321 8.0 9.7 0.00 0.00 0.00 64 1021.0
20260906130023 11 326 1.6 3.2 0.00 0.00 0.00 71 1021.0
20260906125026 10 272 3.2 6.4 0.00 0.00 0.00 72 1020.9
20260906124030 10 283 3.2 3.2 0.00 0.00 0.00 72 1020.9
20260906123016 10 332 3.2 4.8 0.00 0.00 0.00 73 1020.8
20260906122020 10 40 4.8 6.4 0.00 0.00 0.00 73 1020.7
20260906121024 10 23 0.0 3.2 0.00 0.00 0.00 73 1020.6
20260906120022 10 113 3.2 4.8 0.00 0.00 0.00 72 1020.6
20260906115021 10 314 3.2 4.8 0.00 0.00 0.00 73 1020.6
20260906114018 10 23 0.0 4.8 0.00 0.00 0.00 73 1020.6
20260906113015 10 36 6.4 8.0 0.00 0.00 0.00 72 1020.6
20260906112025 10 32 8.0 8.0 0.00 0.00 0.00 72 1020.6
20260906111029 10 23 6.4 8.0 0.00 0.00 0.00 71 1020.6
20260906110016 11 19 6.4 9.7 0.00 0.00 0.00 69 1020.4
20260906105019 11 343 6.4 8.0 0.00 0.00 0.00 69 1020.4
20260906104023 11 328 4.8 6.4 0.00 0.00 0.00 68 1020.2
20260906103027 11 46 3.2 4.8 0.00 2.64 0.00 67 1020.4
20260906102051 11 20 4.8 8.0 0.00 2.64 0.00 64 1020.3
20260906101037 11 15 6.4 9.7 0.00 2.64 0.00 61 1020.1
20260906100022 12 358 8.0 9.7 0.00 2.64 0.00 57 1020.1
20260906095025 12 334 6.4 8.0 0.00 2.64 0.00 59 1020.1
20260906094029 12 20 8.0 8.0 0.00 2.64 0.00 60 1020.0
20260906093015 12 26 6.4 8.0 0.00 2.64 0.00 60 1019.9
20260906092018 12 17 8.0 9.7 0.00 2.64 0.00 59 1019.8
20260906091023 13 23 9.7 9.7 0.00 2.64 0.00 55 1019.7
20260906090026 13 25 9.7 11.3 0.00 2.64 0.00 53 1019.6
20260906085030 13 42 9.7 9.7 0.00 2.64 0.00 54 1019.7
20260906084016 13 30 9.7 11.3 0.00 2.64 0.00 54 1019.7
20260906083020 14 37 9.7 9.7 0.00 2.64 0.00 52 1019.7
20260906082024 15 23 8.0 9.7 0.00 2.64 0.00 49 1019.7
20260906081028 15 45 9.7 9.7 0.00 2.64 0.00 50 1019.7
20260906080015 15 40 8.0 8.0 0.00 2.64 0.00 50 1019.7
20260906075018 15 27 6.4 9.7 0.00 2.64 0.00 51 1019.6
20260906074021 16 360 9.7 9.7 0.00 2.64 0.00 48 1019.6
20260906073025 17 38 4.8 4.8 0.00 2.64 0.00 45 1019.6
20260906072023 17 54 8.0 9.7 0.00 2.64 0.00 43 1019.6
20260906071015 16 45 6.4 8.0 0.00 2.64 0.00 46 1019.6
20260906070019 16 28 8.0 9.7 0.00 2.64 0.00 47 1019.6
20260906065017 16 35 8.0 9.7 0.00 2.64 0.00 48 1019.8
20260906064026 18 22 1.6 4.8 0.00 2.64 0.00 38 1019.8
20260906063030 18 42 4.8 8.0 0.00 2.64 0.00 39 1019.8
20260906062038 17 45 11.3 12.9 0.00 2.64 0.00 39 1019.8
20260906061040 17 28 6.4 8.0 0.00 2.64 0.00 40 1019.7
20260906060044 17 75 1.6 4.8 0.00 2.64 0.00 43 1019.6
20260906055027 17 305 4.8 6.4 0.00 2.64 2.64 41 1019.7
20260906054031 18 315 6.4 9.7 0.00 2.64 2.64 41 1019.7
20260906053017 19 229 3.2 6.4 0.00 2.64 2.64 35 1019.6
20260906052021 18 317 3.2 3.2 0.00 2.64 2.64 35 1019.6
20260906051025 20 189 6.4 8.0 0.00 2.64 2.64 34 1019.7
20260906050028 20 126 6.4 11.3 0.00 2.64 2.64 33 1019.6
20260906045032 21 173 3.2 4.8 0.00 2.64 2.64 32 1019.8
20260906044018 21 171 8.0 8.0 0.00 2.64 2.64 32 1019.7
20260906043021 21 175 9.7 11.3 0.00 2.64 2.64 32 1019.7
20260906042025 21 143 8.0 9.7 0.00 2.64 2.64 32 1019.7
20260906041028 21 131 8.0 9.7 0.00 2.64 2.64 32 1019.6
20260906040032 21 141 12.9 14.5 0.00 2.64 2.64 32 1019.7
20260906035018 21 131 11.3 14.5 0.00 2.64 2.64 32 1019.6
20260906034022 22 96 4.8 6.4 0.00 2.64 2.64 31 1019.4
20260906033025 21 72 3.2 4.8 0.00 2.64 2.64 31 1019.4
20260906032030 21 0.0 0.0 0.00 2.64 2.64 30 1019.4
20260906031015 22 0.0 0.0 0.00 2.64 2.64 30 1019.4
20260906030019 22 0.0 0.0 0.00 2.64 2.64 29 1019.1
20260906025023 23 0.0 0.0 0.00 2.64 2.64 28 1019.0
20260906024021 24 256 4.8 6.4 0.00 2.64 2.64 28 1018.9
20260906023018 24 240 3.2 4.8 0.00 2.64 2.64 28 1018.8
20260906022017 25 258 3.2 6.4 0.00 2.64 2.64 28 1018.8
20260906021020 25 0.0 0.0 0.00 2.64 2.64 27 1018.8
20260906020024 26 288 3.2 4.8 0.00 2.64 2.64 26 1018.8
20260906015028 26 233 4.8 6.4 0.00 2.64 2.64 25 1018.7
20260906014032 27 227 6.4 9.7 0.00 2.64 2.64 25 1018.7
20260906013017 27 228 8.0 11.3 0.00 2.64 2.64 25 1018.7
20260906012021 28 229 8.0 12.9 0.00 2.64 2.64 24 1018.7
20260906011025 28 238 11.3 16.1 0.00 2.64 2.64 24 1018.7
20260906010029 29 240 11.3 14.5 0.00 2.64 2.64 22 1018.7
20260906005032 30 226 14.5 16.1 0.00 2.64 2.64 22 1018.5
20260906004018 30 238 16.1 19.3 0.00 2.64 2.64 21 1018.5
20260906003022 -17 0.0 0.0 0.00 2.64 2.64 1018.5
20260906002026 31 222 14.5 17.7 0.00 2.64 2.64 21 1018.4
20260906001029 31 194 17.7 22.5 0.00 2.64 2.64 21 1018.4
20260906000015 31 206 17.7 24.1 0.00 2.64 2.64 20 1018.5
20260905235019 31 213 20.9 24.1 0.00 2.64 2.64 22 1018.4
20260905234022 31 180 20.9 24.1 0.00 2.64 2.64 21 1018.3
20260905233046 31 190 19.3 29.0 0.00 2.64 2.64 21 1018.3
20260905232029 31 164 20.9 33.8 0.00 2.64 2.64 22 1018.3
20260905231016 31 172 27.4 40.2 0.00 2.64 2.64 22 1018.3
20260905230040 31 165 25.7 30.6 0.00 2.64 2.64 22 1018.2
20260905225023 31 184 17.7 25.7 0.00 2.64 2.64 23 1018.2